INTELSAT 10 (IS-10) (26766 NORAD) Tracking and Keplerian Element Data

This shows tracking and keplerian element data for the satellite.

Feedback or suggestion? Click here.




ElementValue
Catalog26766
NameINTELSAT 10 (IS-10)
Epoch Orbit1664
Epoch Day198.92351714
Epoch Year2018
RAAN83.2725
Inclination2.3525
Eccentricity0.0003899
Argument of Perigee354.5719
Mean Anonmoly237.7815
Mean Motion1.00271833
Decay Rate1.04E-06
L11 26766U 01019A 18198.92351714 .00000104 00000-0 00000-0 0 9992
L22 26766 2.3525 83.2725 0003899 354.5719 237.7815 1.00271833 16641

Live tracking and technical data element details for INTELSAT 10 (IS-10) (NORAD 26766). INTELSAT 10 (IS-10) can be tracked NOW for your location showing map with azimuth and elevation plus other details from your city location.

Track the satellite on the map from your city or location and see movement details for azimuth, elevation, latitude, longitude, range, height, and movement on the map or in text.







IsCatalogInMostPopularTable: catalog: 26766, numindb: 35
Update: records affected: 1



GetName: 26766 INTELSAT 10 (IS-10)

Hit Count: updated at: Sat, 21 Jul 2018 07:46:43 GMT